TimeCDT,TemperatureF,Dew PointF,Humidity,Sea Level PressureIn,VisibilityMPH,Wind Direction,Wind SpeedMPH,Gust SpeedMPH,PrecipitationIn,Events,Conditions,WindDirDegrees,DateUTC
12:15 AM,53.6,32.0,44,30.01,10.0,ENE,6.9,-,N/A,,Clear,60,2013-05-17 05:15:00
12:35 AM,53.6,32.0,44,30.01,10.0,ENE,6.9,-,N/A,,Clear,70,2013-05-17 05:35:00
12:55 AM,53.6,33.8,47,30.00,10.0,ENE,8.1,-,N/A,,Clear,60,2013-05-17 05:55:00
1:15 AM,51.8,35.6,54,30.00,10.0,ENE,8.1,-,N/A,,Clear,70,2013-05-17 06:15:00
1:35 AM,51.8,35.6,54,30.00,10.0,ENE,8.1,-,N/A,,Clear,70,2013-05-17 06:35:00
1:55 AM,51.8,35.6,54,30.01,10.0,ENE,6.9,-,N/A,,Clear,70,2013-05-17 06:55:00
2:15 AM,51.8,35.6,54,30.00,10.0,ENE,4.6,-,N/A,,Clear,60,2013-05-17 07:15:00
2:35 AM,51.8,33.8,50,30.01,10.0,ENE,6.9,-,N/A,,Clear,60,2013-05-17 07:35:00
2:55 AM,51.8,35.6,54,30.01,10.0,ENE,6.9,-,N/A,,Clear,70,2013-05-17 07:55:00
3:15 AM,51.8,33.8,50,30.02,10.0,ENE,6.9,-,N/A,,Clear,60,2013-05-17 08:15:00
3:35 AM,50.0,35.6,58,30.01,10.0,ENE,6.9,-,N/A,,Clear,70,2013-05-17 08:35:00
3:55 AM,50.0,35.6,58,30.02,10.0,ENE,4.6,-,N/A,,Clear,70,2013-05-17 08:55:00
4:15 AM,50.0,35.6,58,30.02,10.0,ENE,6.9,-,N/A,,Clear,60,2013-05-17 09:15:00
4:35 AM,50.0,35.6,58,30.02,10.0,ENE,5.8,-,N/A,,Clear,60,2013-05-17 09:35:00
4:55 AM,50.0,35.6,58,30.03,10.0,ENE,6.9,-,N/A,,Clear,60,2013-05-17 09:55:00
5:15 AM,50.0,35.6,58,30.03,10.0,ENE,5.8,-,N/A,,Clear,60,2013-05-17 10:15:00
5:35 AM,50.0,35.6,58,30.04,10.0,East,8.1,-,N/A,,Mostly Cloudy,80,2013-05-17 10:35:00
5:45 AM,48.2,37.4,66,30.05,10.0,East,5.8,-,N/A,,Scattered Clouds,80,2013-05-17 10:45:00
6:45 AM,50.0,39.2,66,30.05,10.0,ENE,6.9,-,N/A,,Overcast,70,2013-05-17 11:45:00
7:45 AM,50.0,42.8,76,30.07,10.0,ENE,9.2,-,N/A,Rain,Light Rain,60,2013-05-17 12:45:00
8:45 AM,48.2,44.6,87,30.11,4.0,NNE,6.9,-,N/A,Rain,Rain,30,2013-05-17 13:45:00
9:45 AM,46.4,44.6,93,30.15,1.5,NE,8.1,-,N/A,Rain,Heavy Rain,50,2013-05-17 14:45:00
10:15 AM,46.4,44.6,93,30.12,7.0,NE,11.5,-,N/A,Rain,Light Rain,40,2013-05-17 15:15:00
10:45 AM,46.4,44.6,93,30.12,10.0,ENE,10.4,20.7,N/A,,Overcast,70,2013-05-17 15:45:00
11:45 AM,48.2,46.4,93,30.12,10.0,ENE,11.5,16.1,N/A,,Overcast,70,2013-05-17 16:45:00
12:45 PM,53.6,46.4,77,30.10,10.0,East,10.4,16.1,N/A,,Overcast,80,2013-05-17 17:45:00
2:45 PM,53.6,44.6,72,30.11,10.0,ENE,8.1,-,N/A,,Overcast,70,2013-05-17 19:45:00
3:45 PM,55.4,44.6,67,30.09,10.0,East,6.9,-,N/A,,Mostly Cloudy,90,2013-05-17 20:45:00
4:45 PM,57.2,44.6,63,30.08,10.0,East,9.2,-,N/A,,Scattered Clouds,90,2013-05-17 21:45:00
5:45 PM,57.2,44.6,63,30.08,10.0,East,9.2,-,N/A,,Overcast,90,2013-05-17 22:45:00
6:45 PM,57.2,44.6,63,30.07,10.0,East,9.2,-,N/A,,Overcast,90,2013-05-17 23:45:00
7:45 PM,57.2,42.8,59,30.09,10.0,East,6.9,-,N/A,,Overcast,100,2013-05-18 00:45:00
8:45 PM,55.4,42.8,63,30.08,10.0,East,6.9,-,N/A,,Overcast,100,2013-05-18 01:45:00
9:15 PM,53.6,42.8,67,30.09,10.0,ENE,6.9,-,N/A,,Mostly Cloudy,70,2013-05-18 02:15:00
9:35 PM,53.6,42.8,67,30.10,10.0,East,6.9,-,N/A,,Overcast,80,2013-05-18 02:35:00
9:55 PM,53.6,42.8,67,30.10,10.0,East,8.1,-,N/A,,Overcast,90,2013-05-18 02:55:00
10:15 PM,51.8,42.8,71,30.10,10.0,East,8.1,-,N/A,,Overcast,80,2013-05-18 03:15:00
10:35 PM,51.8,42.8,71,30.10,10.0,East,6.9,-,N/A,,Overcast,90,2013-05-18 03:35:00
10:55 PM,51.8,42.8,71,30.08,10.0,East,8.1,-,N/A,,Mostly Cloudy,80,2013-05-18 03:55:00
11:15 PM,51.8,42.8,71,30.08,10.0,East,8.1,-,N/A,,Scattered Clouds,80,2013-05-18 04:15:00
11:35 PM,50.0,42.8,76,30.07,10.0,ENE,5.8,-,N/A,,Mostly Cloudy,70,2013-05-18 04:35:00
11:55 PM,50.0,42.8,76,30.07,10.0,ENE,9.2,-,N/A,,Mostly Cloudy,60,2013-05-18 04:55:00